DW9210 Weather Reports


time (UTC)temp
C
wind
direction
speed
KPH
gust
KPH
rain 1hr
cm
rain 24hr
cm
rain mn
cm
humidity
%
barometer
mb
20260506222503 15 322 3.2 8.0 0.00 1.24 1.02 69 1011.5
20260506222003 15 325 3.2 8.0 0.00 1.24 1.02 66 1011.3
20260506221504 15 324 4.8 11.3 0.00 1.24 1.02 68 1011.0
20260506221003 15 332 4.8 11.3 0.00 1.24 1.02 66 1011.0
20260506220503 15 332 4.8 9.7 0.00 1.24 1.02 68 1011.1
20260506220003 15 325 3.2 8.0 0.00 1.24 1.02 67 1011.4
20260506215503 15 325 3.2 6.4 0.00 1.24 1.02 72 1011.3
20260506215003 15 308 3.2 6.4 0.00 1.24 1.02 69 1011.4
20260506214503 15 296 4.8 6.4 0.00 1.24 1.02 70 1011.4
20260506214024 15 298 4.8 8.0 0.00 1.24 1.02 70 1011.9
20260506213503 16 297 4.8 8.0 0.00 1.24 1.02 69 1011.8
20260506213003 16 299 4.8 8.0 0.00 1.24 1.02 69 1011.6
20260506212503 16 302 4.8 11.3 0.00 1.24 1.02 70 1011.4
20260506212003 16 294 4.8 11.3 0.00 1.24 1.02 68 1011.3
20260506211503 16 292 4.8 6.4 0.00 1.24 1.02 71 1011.4
20260506211003 16 292 4.8 6.4 0.00 1.24 1.02 70 1011.4
20260506210503 16 298 3.2 6.4 0.00 1.24 1.02 70 1011.3
20260506210003 16 295 3.2 6.4 0.00 1.24 1.02 70 1011.3
20260506205503 16 286 3.2 6.4 0.00 1.24 1.02 71 1011.3
20260506205003 16 286 3.2 6.4 0.00 1.24 1.02 67 1011.4
20260506204503 16 292 3.2 6.4 0.00 1.24 1.02 70 1011.3
20260506204003 16 282 3.2 6.4 0.00 1.24 1.02 70 1011.1
20260506203503 16 299 3.2 6.4 0.00 1.24 1.02 68 1011.0
20260506203003 16 13 3.2 6.4 0.00 1.24 1.02 68 1010.9
20260506202503 16 359 3.2 6.4 0.00 1.24 1.02 69 1011.2
20260506202003 16 289 3.2 6.4 0.00 1.24 1.02 67 1011.3
20260506201503 16 290 3.2 6.4 0.00 1.24 1.02 67 1011.4
20260506201003 16 308 1.6 6.4 0.00 1.24 1.02 67 1011.5
20260506200503 16 292 1.6 4.8 0.00 1.24 1.02 66 1011.6
20260506200003 16 296 1.6 6.4 0.00 1.24 1.02 68 1011.6
20260506195503 16 301 3.2 8.0 0.00 1.24 1.02 69 1011.4
20260506195003 16 287 3.2 8.0 0.00 1.24 1.02 67 1011.6
20260506194503 16 303 3.2 4.8 0.00 1.24 1.02 68 1011.8
20260506194003 16 350 3.2 4.8 0.00 1.24 1.02 65 1011.5
20260506193503 16 320 3.2 9.7 0.00 1.24 1.02 67 1011.3
20260506193003 16 309 3.2 9.7 0.00 1.24 1.02 67 1011.4
20260506192503 16 324 3.2 8.0 0.00 1.24 1.02 72 1011.3
20260506192003 16 321 3.2 8.0 0.00 1.24 1.02 68 1011.3
20260506191524 16 304 1.6 8.0 0.00 1.24 1.02 67 1011.5
20260506191003 16 282 3.2 11.3 0.00 1.24 1.02 65 1011.3
20260506190503 16 265 3.2 11.3 0.00 1.24 1.02 67 1011.3
20260506190003 16 261 3.2 11.3 0.00 1.24 1.02 73 1011.4
20260506185503 16 271 3.2 11.3 0.00 1.24 1.02 67 1011.5
20260506185024 16 352 3.2 6.4 0.00 1.24 1.02 67 1011.2
20260506184503 16 302 3.2 8.0 0.00 1.24 1.02 69 1011.1
20260506184003 16 284 3.2 8.0 0.00 1.24 1.02 69 1011.1
20260506183503 16 294 3.2 8.0 0.00 1.24 1.02 67 1011.3
20260506183003 16 271 1.6 8.0 0.00 1.24 1.02 67 1011.3
20260506182503 16 244 1.6 8.0 0.00 1.24 1.02 72 1011.3
20260506182003 15 2 4.8 8.0 0.00 1.24 1.02 67 1011.3
20260506181503 15 16 6.4 16.1 0.00 1.24 1.02 73 1011.2
20260506181024 15 22 6.4 16.1 0.00 1.24 1.02 71 1011.0
20260506180503 15 14 4.8 14.5 0.00 1.24 1.02 72 1011.0
20260506180004 15 17 3.2 8.0 0.00 1.24 1.02 71 1011.0
20260506175503 15 11 4.8 9.7 0.00 1.24 1.02 71 1011.0
20260506175003 15 341 4.8 9.7 0.00 1.24 1.02 75 1011.3
20260506174503 15 348 6.4 12.9 0.00 1.24 1.02 74 1011.3
20260506174003 15 2 6.4 12.9 0.00 1.24 1.02 72 1011.4
20260506173503 15 340 4.8 9.7 0.00 1.24 1.02 72 1011.3
20260506173003 15 332 6.4 16.1 0.00 1.24 1.02 73 1011.3
20260506172503 15 336 4.8 16.1 0.00 1.24 1.02 73 1011.4
20260506172003 15 14 4.8 17.7 0.00 1.24 1.02 80 1011.4
20260506171503 14 20 6.4 17.7 0.00 1.24 1.02 74 1011.5
20260506171003 14 344 6.4 11.3 0.00 1.24 1.02 76 1011.4
20260506170524 14 335 6.4 12.9 0.00 1.24 1.02 76 1011.6
20260506170003 14 13 6.4 12.9 0.00 1.24 1.02 76 1011.6
20260506165503 14 21 6.4 17.7 0.00 1.24 1.02 75 1011.6
20260506165003 14 8 6.4 17.7 0.00 1.24 1.02 75 1011.7
20260506164503 14 348 4.8 14.5 0.00 1.24 1.02 79 1011.8
20260506164003 13 343 4.8 8.0 0.00 1.24 1.02 78 1011.8
20260506163503 13 6 4.8 9.7 0.00 1.24 1.02 80 1011.8
20260506163003 13 358 4.8 9.7 0.00 1.24 1.02 77 1011.8
20260506162503 13 351 4.8 9.7 0.00 1.24 1.02 80 1011.7
20260506162003 13 352 4.8 11.3 0.00 1.24 1.02 78 1011.5
20260506161503 13 348 4.8 11.3 0.00 1.24 1.02 81 1011.5
20260506161003 13 1 3.2 11.3 0.00 1.24 1.02 80 1011.4
20260506160503 13 32 4.8 14.5 0.00 1.24 1.02 79 1011.4
20260506160003 13 49 6.4 14.5 0.00 1.24 1.02 79 1011.5
20260506155503 13 42 6.4 14.5 0.00 1.24 1.02 82 1011.5
20260506155003 13 28 6.4 12.9 0.00 1.24 1.02 80 1011.3
20260506154503 13 27 4.8 11.3 0.00 1.24 1.02 80 1011.2
20260506154003 12 34 4.8 11.3 0.00 1.24 1.02 84 1011.1
20260506153503 12 48 4.8 11.3 0.00 1.24 1.02 82 1011.0
20260506153003 12 5 4.8 9.7 0.00 1.24 1.02 81 1011.0
20260506152503 12 319 4.8 9.7 0.00 1.24 1.02 83 1011.1
20260506152003 12 310 3.2 8.0 0.00 1.24 1.02 85 1011.0
20260506151503 12 332 3.2 8.0 0.00 1.24 1.02 85 1011.0
20260506151003 12 327 3.2 8.0 0.00 1.24 1.02 84 1011.1
20260506150524 12 303 3.2 8.0 0.00 1.24 1.02 87 1011.1
20260506150003 11 341 3.2 8.0 0.00 1.24 1.02 88 1011.1
20260506145503 11 344 3.2 8.0 0.00 1.24 1.02 87 1011.1
20260506145003 11 338 4.8 9.7 0.00 1.24 1.02 88 1011.1
20260506144503 11 352 4.8 11.3 0.00 1.24 1.02 88 1011.1
20260506144003 10 18 4.8 11.3 0.00 1.24 1.02 90 1011.0
20260506143503 10 35 4.8 8.0 0.00 1.24 1.02 89 1011.0
20260506143003 10 37 4.8 8.0 0.00 1.24 1.02 91 1010.9
20260506142503 10 28 4.8 12.9 0.00 1.24 1.02 90 1010.8
20260506142003 10 22 6.4 12.9 0.00 1.24 1.02 89 1010.8
20260506141503 10 21 4.8 9.7 0.00 1.24 1.02 91 1010.5
20260506141003 9 29 3.2 8.0 0.00 1.24 1.02 91 1010.5
20260506140503 9 37 4.8 9.7 0.00 1.24 1.02 90 1010.4
20260506140024 9 4 4.8 9.7 0.00 1.24 1.02 90 1010.6
20260506135503 9 341 4.8 9.7 0.00 1.24 1.02 91 1010.6
20260506135003 9 2 3.2 9.7 0.00 1.24 1.02 91 1010.5
20260506134503 9 345 4.8 12.9 0.00 1.24 1.02 91 1010.5
20260506134003 9 346 4.8 12.9 0.00 1.24 1.02 92 1010.3
20260506133503 8 6 4.8 12.9 0.00 1.24 1.02 92 1010.1
20260506133003 8 359 4.8 12.9 0.00 1.24 1.02 92 1009.9
20260506132524 8 340 4.8 12.9 0.00 1.24 1.02 92 1010.0
20260506132003 8 338 4.8 11.3 0.00 1.24 1.02 92 1010.0
20260506131503 8 351 6.4 12.9 0.00 1.24 1.02 93 1010.0
20260506131024 8 354 6.4 12.9 0.00 1.24 1.02 92 1010.1
20260506130524 8 348 4.8 11.3 0.03 1.24 1.02 93 1009.9
20260506130024 8 338 4.8 14.5 0.03 1.24 1.02 93 1010.1
20260506125503 8 317 6.4 14.5 0.03 1.24 1.02 93 1010.1
20260506125003 8 306 6.4 12.9 0.03 1.24 1.02 93 1010.0
20260506124503 9 310 4.8 11.3 0.03 1.24 1.02 94 1010.0
20260506124003 9 310 6.4 16.1 0.03 1.24 1.02 94 1009.7
20260506123503 9 305 4.8 16.1 0.03 1.24 1.02 94 1009.4
20260506123024 9 318 4.8 8.0 0.03 1.24 1.02 94 1009.1
20260506122503 9 332 4.8 8.0 0.03 1.24 1.02 94 1009.2
20260506122003 9 332 4.8 8.0 0.03 1.24 1.02 95 1009.1
20260506121503 9 334 4.8 9.7 0.03 1.24 1.02 95 1008.9
20260506121003 9 332 3.2 9.7 0.03 1.24 1.02 94 1008.9
20260506120503 9 326 3.2 8.0 0.00 1.22 0.99 95 1009.1
20260506120003 8 315 3.2 8.0 0.00 1.22 0.99 95 1009.0
20260506115503 8 307 3.2 8.0 0.00 1.22 0.99 95 1009.2
20260506115003 8 305 4.8 11.3 0.00 1.22 0.99 95 1009.1
20260506114525 8 305 4.8 11.3 0.00 1.22 0.99 95 1008.9
20260506114003 8 313 4.8 9.7 0.00 1.22 0.99 95 1008.8
20260506113503 8 321 6.4 12.9 0.00 1.22 0.99 95 1008.4
20260506113024 8 317 4.8 12.9 0.00 1.22 0.99 95 1008.5
20260506112503 8 323 3.2 9.7 0.00 1.22 0.99 95 1008.4
20260506112003 8 331 4.8 11.3 0.00 1.22 0.99 95 1008.1
20260506111503 8 323 4.8 12.9 0.00 1.22 0.99 95 1008.2
20260506111003 8 321 4.8 12.9 0.00 1.22 0.99 95 1008.4
20260506110503 8 330 3.2 9.7 0.00 1.22 0.99 94 1008.1
20260506110024 8 333 3.2 9.7 0.00 1.22 0.99 94 1007.7
20260506105503 8 323 6.4 14.5 0.00 1.22 0.99 94 1007.7
20260506105024 9 317 8.0 16.1 0.00 1.22 0.99 94 1007.8
20260506104503 9 311 6.4 16.1 0.00 1.22 0.99 95 1007.5
20260506104024 9 314 4.8 9.7 0.03 1.22 0.99 95 1007.4
20260506103503 9 341 4.8 11.3 0.03 1.22 0.99 94 1007.3
20260506103003 9 352 4.8 12.9 0.03 1.22 0.99 94 1007.0
20260506102524 9 349 4.8 12.9 0.03 1.22 0.99 94 1006.7
20260506102003 9 337 6.4 16.1 0.03 1.22 0.99 94 1006.6
20260506101524 9 338 6.4 16.1 0.05 1.22 0.99 94 1006.6
20260506101003 9 351 6.4 17.7 0.08 1.22 0.99 94 1006.3
20260506100503 9 358 6.4 17.7 0.08 1.22 0.99 94 1006.1
20260506100003 10 358 6.4 16.1 0.08 1.22 0.99 93 1006.1
20260506095503 10 355 8.0 20.9 0.08 1.22 0.99 93 1006.2
20260506095024 10 352 8.0 20.9 0.08 1.22 0.99 93 1006.3
20260506094503 10 332 6.4 14.5 0.08 1.22 0.99 93 1006.3
20260506094003 10 322 8.0 14.5 0.05 1.19 0.97 93 1006.5
20260506093503 11 312 8.0 17.7 0.05 1.19 0.97 93 1006.0
20260506093003 11 309 8.0 17.7 0.05 1.19 0.97 93 1006.1
20260506092503 11 311 8.0 16.1 0.05 1.19 0.97 93 1006.1
20260506092024 12 307 8.0 14.5 0.05 1.19 0.97 93 1006.3
20260506091503 12 306 6.4 11.3 0.05 1.17 0.94 94 1006.1
20260506091003 12 303 4.8 11.3 0.05 1.14 0.91 94 1006.0
20260506090503 12 304 8.0 14.5 0.10 1.14 0.91 94 1006.0
20260506090003 13 309 8.0 14.5 0.18 1.14 0.91 93 1005.6
20260506085503 13 302 8.0 16.1 0.20 1.14 0.91 93 1005.4
20260506085024 14 289 8.0 16.1 0.23 1.14 0.91 94 1005.3
20260506084503 14 273 3.2 12.9 0.28 1.14 0.91 96 1005.1
20260506084024 14 265 3.2 6.4 0.30 1.14 0.91 96 1005.2
20260506083503 14 258 4.8 8.0 0.30 1.14 0.91 95 1004.9
20260506083003 14 255 4.8 9.7 0.30 1.14 0.91 95 1004.8
20260506082503 14 257 3.2 9.7 0.33 1.14 0.91 95 1004.8
20260506082003 14 262 1.6 4.8 0.36 1.14 0.91 95 1004.6
20260506081503 14 267 1.6 8.0 0.38 1.12 0.89 95 1004.6
20260506081003 14 263 1.6 8.0 0.36 1.09 0.86 95 1004.5
20260506080524 14 260 1.6 8.0 0.36 1.04 0.81 95 1004.6
20260506073503 14 232 1.6 6.4 0.28 0.84 0.61 95 1004.2
20260506073003 14 240 1.6 6.4 0.28 0.84 0.61 95 1004.2
20260506072503 14 246 1.6 6.4 0.28 0.81 0.58 94 1004.3
20260506072003 14 251 1.6 6.4 0.28 0.79 0.56 94 1004.3
20260506071503 14 260 3.2 6.4 0.23 0.74 0.51 94 1004.3
20260506071003 15 269 3.2 6.4 0.30 0.74 0.51 94 1004.2
20260506070524 15 280 3.2 4.8 0.28 0.69 0.48 94 1004.3
20260506062024 15 256 4.8 12.9 0.25 0.51 0.30 93 1004.3
20260506061503 15 267 4.8 12.9 0.25 0.51 0.28 92 1004.5
20260506061003 15 265 4.8 11.3 0.18 0.43 0.20 92 1004.6
20260506060503 15 236 6.4 22.5 0.15 0.41 0.18 92 1004.5
20260506051003 15 169 1.6 6.4 0.03 0.25 0.03 92 1004.6
20260506050503 15 179 0.0 6.4 0.03 0.25 0.03 92 1004.6
20260506045003 15 150 1.6 6.4 0.10 0.25 0.03 91 1004.6
20260506044003 15 187 3.2 9.7 0.10 0.25 0.03 91 1004.8
20260506043503 15 193 3.2 11.3 0.10 0.25 0.03 90 1004.8
20260506043003 15 190 3.2 12.9 0.10 0.25 0.03 90 1005.1
20260506042503 15 188 4.8 12.9 0.08 0.23 0.00 90 1005.2
20260506042003 15 187 4.8 11.3 0.10 0.23 0.00 90 1005.3
20260506041503 15 185 3.2 11.3 0.10 0.23 0.00 91 1005.4
20260506041003 15 184 3.2 9.7 0.10 0.23 0.00 90 1005.5
20260506040503 15 178 3.2 8.0 0.10 0.23 0.00 90 1005.5
20260506040003 15 183 3.2 8.0 0.10 0.23 0.00 89 1005.7
20260506035524 15 199 3.2 8.0 0.03 0.15 0.15 88 1005.9
20260506035003 16 206 3.2 8.0 0.03 0.15 0.15 88 1005.9
20260506034503 16 204 3.2 12.9 0.03 0.15 0.15 87 1005.9
20260506034003 16 208 6.4 16.1 0.03 0.15 0.15 86 1005.8
20260506033524 16 216 6.4 16.1 0.03 0.15 0.15 85 1006.0
20260506033024 16 229 6.4 22.5 0.03 0.15 0.15 85 1006.1
20260506032503 16 232 9.7 33.8 0.03 0.15 0.15 84 1006.1
20260506032003 17 228 12.9 33.8 0.00 0.13 0.13 82 1006.2
20260506031503 17 225 12.9 30.6 0.00 0.13 0.13 80 1006.3
20260506031003 17 228 11.3 30.6 0.00 0.13 0.13 78 1006.3
20260506030503 17 233 11.3 35.4 0.00 0.13 0.13 78 1006.2
20260506030003 17 231 11.3 35.4 0.00 0.13 0.13 78 1006.2
20260506025503 17 223 8.0 24.1 0.00 0.13 0.13 80 1006.1
20260506025003 17 219 6.4 17.7 0.00 0.13 0.13 82 1006.1
20260506024503 16 214 8.0 24.1 0.00 0.13 0.13 83 1005.8
20260506024024 16 211 8.0 25.7 0.00 0.13 0.13 85 1005.8
20260506023503 16 201 4.8 25.7 0.00 0.13 0.13 88 1005.8
20260506023003 15 180 1.6 9.7 0.00 0.13 0.13 90 1005.7
20260506022503 15 150 1.6 4.8 0.00 0.13 0.13 91 1005.8
20260506022003 15 145 1.6 4.8 0.00 0.13 0.13 91 1005.7
20260506021503 15 173 1.6 4.8 0.00 0.13 0.13 91 1005.7
20260506021003 15 199 1.6 3.2 0.00 0.13 0.13 91 1005.9
20260506020503 15 207 0.0 3.2 0.00 0.13 0.13 91 1005.5
20260506020003 15 194 0.0 3.2 0.00 0.13 0.13 91 1005.5
20260506015503 15 187 0.0 3.2 0.03 0.13 0.13 91 1005.4
20260506015024 15 171 0.0 1.6 0.03 0.13 0.13 91 1005.2
20260506014524 16 166 0.0 1.6 0.05 0.13 0.13 91 1005.2
20260506014003 16 168 0.0 1.6 0.05 0.13 0.13 91 1005.2
20260506013503 16 167 0.0 3.2 0.08 0.13 0.13 90 1005.3
20260506013003 16 167 0.0 3.2 0.10 0.13 0.13 90 1005.3
20260506012503 16 168 0.0 1.6 0.10 0.13 0.13 89 1005.2
20260506012003 16 192 0.0 3.2 0.10 0.13 0.13 89 1005.3
20260506011504 16 187 0.0 4.8 0.10 0.13 0.13 88 1005.4
20260506011003 16 186 1.6 4.8 0.10 0.13 0.13 88 1005.4
20260506010503 16 167 1.6 4.8 0.10 0.13 0.13 88 1005.2
20260506010003 16 155 1.6 6.4 0.10 0.13 0.13 88 1005.1
20260506005524 16 175 3.2 8.0 0.08 0.10 0.10 88 1005.3
20260506005003 16 174 3.2 8.0 0.08 0.10 0.10 88 1005.7
20260506004504 16 150 4.8 11.3 0.05 0.08 0.08 88 1005.4
20260506004003 16 142 4.8 11.3 0.05 0.08 0.08 88 1005.2
20260506003503 16 135 3.2 11.3 0.03 0.05 0.05 91 1005.1
20260506003003 16 92 1.6 6.4 0.03 0.03 0.03 89 1005.9
20260506002503 16 353 0.0 3.2 0.03 0.03 0.03 89 1006.3
20260506002024 16 7 0.0 1.6 0.03 0.03 0.03 88 1006.1
20260506001503 17 7 0.0 1.6 0.03 0.03 0.03 87 1006.0
20260506001003 17 7 0.0 1.6 0.03 0.03 0.03 88 1006.0
20260506000503 17 7 0.0 1.6 0.03 0.03 0.03 87 1005.9
20260506000003 17 7 0.0 1.6 0.03 0.03 0.03 86 1006.0
20260505235503 17 7 0.0 1.6 0.03 0.03 0.03 85 1006.0
20260505235024 17 339 0.0 3.2 0.03 0.03 0.03 84 1006.1
20260505234503 17 284 1.6 3.2 0.03 0.03 0.03 82 1006.1
20260505234003 18 253 1.6 3.2 0.03 0.03 0.03 80 1006.2
20260505233503 18 196 1.6 4.8 0.03 0.03 0.03 78 1006.2
20260505233003 18 192 1.6 4.8 0.00 0.00 0.00 77 1006.2
20260505232503 18 194 1.6 4.8 0.00 0.00 0.00 77 1006.1
20260505232003 18 172 1.6 6.4 0.00 0.00 0.00 77 1006.1
20260505231503 18 155 1.6 6.4 0.00 0.00 0.00 76 1005.9
20260505231003 18 159 1.6 4.8 0.00 0.00 0.00 76 1005.9
20260505230503 18 150 1.6 6.4 0.00 0.00 0.00 76 1006.0
20260505230003 18 146 1.6 6.4 0.00 0.00 0.00 76 1006.1
20260505225503 18 142 1.6 6.4 0.00 0.00 0.00 76 1006.1
20260505225003 18 142 3.2 11.3 0.00 0.00 0.00 76 1006.0
20260505224503 18 139 1.6 11.3 0.00 0.00 0.00 76 1006.1
20260505224003 18 134 1.6 6.4 0.00 0.00 0.00 78 1006.1
20260505223524 18 136 3.2 8.0 0.00 0.00 0.00 78 1006.1
20260505223024 18 138 1.6 8.0 0.00 0.00 0.00 78 1006.2